Погода в Янине

Греция     39°39′59″N   20°51′16″E
темп.,
°C
ветер,
м/с
пор.,
м/с
влажн.,
%
обл.,
%
осадки,
мм/ч
давл.,
гПа
погр.,
м
7 марта, вс
вс723:00+4св11880 0.0 102522
02:00+4св11860 0.0 102522
05:00+3св11860 0.0 102523
08:00+4всв22830 0.0 102535
11:00+11ююв11602 0.0 1024665
14:00+13зюз235011 0.0 10231601
17:00+11зюз346258 0.6 10211084
20:00+6з018330 0.8 102122
8 марта, пн
пн823:00+5юв12900 0.0 102122
02:00+4вюв22940 0.0 102022
05:00+3всв11921 0.0 101922
08:00+5вюв11881 0.0 101833
11:00+10ю116778 0.0 1018685
14:00+12з125689 0.0 10161233
17:00+11зюз2261100 0.1 10151076
20:00+7з1190100 0.4 101522
9 марта, вт
вт923:00+6юв1193100 0.0 101622
02:00+5св119458 0.0 101623
05:00+5всв11904 0.0 101522
08:00+6всв11843 0.0 101625
11:00+12ю11590 0.0 1016703
14:00+14юз22487 0.0 10151584
17:00+13юз235866 0.3 10141131
20:00+8ю117983 0.4 101522
10 марта, ср
ср1023:00+6юв1292100 0.1 101623
02:00+5юв2293100 0.1 101524
05:00+4юв229379 0.0 101424
08:00+5юв359081 0.0 1013197
11:00+7ю3597100 3.1 1013305
14:00+7зюз0196100 12.4 1014135
17:00+8сз2386100 0.6 1013319
20:00+5ссз129181 0.6 101526
11 марта, чт
чт1123:00+4сз119183 0.0 101822
02:00+5ссз128783 0.0 101928
05:00+3ссв22895 0.0 101930
08:00+3св22817 0.0 102192
11:00+9всв12480 0.0 10231005
14:00+12ю11380 0.0 10231538
17:00+11з11390 0.0 10231390
20:00+6с12600 0.0 102522